Flag for Bolivia Weather past 2 weeks in Santa Cruz, Bolivia

Now
75 °F

Clear.


Feels Like: 74 °F
Forecast: 70 / 92 °F
Wind: 3 mph from North

Location: Viru-Viru

Current Time: Feb 1, 2015 at 12:28:59 AM

Latest Report: Feb 1, 2015 at 12:00 AM


Visibility: N/A

Pressure: 29.92 "Hg

Humidity: 94%

Dew point: 73 °F

Location of Santa CruzLocation

Historic Weather in Santa Cruz — Graph

°F

Santa Cruz temperature yesterday

Maximum temperature yesterday: 91 °F (at 2:00 PM)
Minimum temperature yesterday: 73 °F (at 12:00 AM)
Average temperature yesterday: 81 °F

Past Weeks' High & Low Weather Summary

 TemperatureHumidityPressure
High95 °F (Jan 23, 1:00 PM)100% (Jan 17, 12:00 AM)30.07 "Hg (Jan 17, 12:00 AM)
Low70 °F (Jan 21, 5:00 AM)38% (Jan 17, 3:00 PM)29.71 "Hg (Jan 24, 5:00 PM)
Average79 °F79%29.90 "Hg
* Reported Jan 16 11:00 PM — Jan 31 11:00 PM, Santa Cruz, Weather by CustomWeather, © 2014

Note: Actual official high and low records may vary slightly from our data, if they occured in-between our weather recording intervals... More about our weather records

Advertising

Santa Cruz weather history for previous 24 hours

 ConditionsComfort  
Time TempWeatherWind HumidityBarometerVisibility
11:00 PM
Jan 31
77 °FClear.6 mph89%29.92 "HgN/A
10:00 PM77 °FClear.6 mph89%29.92 "HgN/A
9:00 PM77 °FClear.5 mph89%29.89 "HgN/A
8:00 PMN/A5 mphN/AN/A9 mi
7:00 PM82 °FPassing clouds.5 mph74%29.83 "HgN/A
6:00 PM86 °FPartly sunny.7 mph62%29.83 "HgN/A
5:00 PM90 °FBroken clouds.10 mph52%29.83 "HgN/A
4:00 PM90 °FBroken clouds.10 mph52%29.86 "HgN/A
3:00 PM90 °FPartly sunny.7 mph52%29.89 "HgN/A
2:00 PM91 °FPartly sunny.7 mph49%29.92 "HgN/A
1:00 PM88 °FPartly sunny.3 mph59%29.98 "HgN/A
12:00 PM88 °FBroken clouds.5 mph59%29.98 "HgN/A
11:00 AM88 °FScattered clouds.5 mph59%30.01 "HgN/A
10:00 AM84 °FScattered clouds.8 mph62%30.04 "HgN/A
9:00 AM81 °FScattered clouds.9 mph74%30.04 "HgN/A
8:00 AM77 °FPartly sunny.7 mph83%30.01 "HgN/A
7:00 AM75 °FBroken clouds.6 mph89%30.01 "HgN/A
6:00 AM73 °FBroken clouds.9 mph94%29.98 "HgN/A
5:00 AM73 °FPartly cloudy.14 mph94%29.95 "HgN/A
4:00 AM73 °FPartly cloudy.12 mph94%29.92 "HgN/A
3:00 AM73 °FPartly cloudy.5 mph94%29.92 "HgN/A
2:00 AM73 °FPartly cloudy.5 mph100%29.92 "HgN/A
1:00 AM73 °FPartly cloudy.3 mph100%29.95 "HgN/A
12:00 AM73 °FPartly cloudy.3 mph100%29.95 "HgN/A
Weather by CustomWeather, © 2014

See weather overviewHow to use our weather pages